Flag for U.S.A. Weather past 2 weeks in Richmond, Virginia, U.S.A.

Now
71 °F

Clear.


Feels Like: 72 °F
Forecast: 67 / 90 °F
Wind: No wind

Location: Richmond International Airport

Current Time: Aug 1, 2015 at 2:55:05 AM

Latest Report: Aug 1, 2015 at 1:54 AM


Visibility: 10 mi

Pressure: 29.92 "Hg

Humidity: 78%

Dew point: 64 °F

Location of RichmondLocation

Historic Weather in Richmond — Graph

°F

Richmond temperature yesterday

Maximum temperature yesterday: 90 °F (at 2:54 PM)
Minimum temperature yesterday: 72 °F (at 10:54 PM)
Average temperature yesterday: 81 °F

Past Weeks' High & Low Weather Summary

 TemperatureHumidityPressure
High93 °F (Jul 20, 12:54 PM)94% (Jul 17, 5:54 AM)30.11 "Hg (Jul 17, 5:54 AM)
Low63 °F (Jul 25, 4:54 AM)33% (Jul 22, 6:54 PM)29.65 "Hg (Jul 21, 2:54 PM)
Average80 °F71%29.94 "Hg
* Reported Jul 17 12:54 AM — Aug 1 12:54 AM, Richmond, Weather by CustomWeather, © 2015

Note: Actual official high and low records may vary slightly from our data, if they occured in-between our weather recording intervals... More about our weather records

Advertising

Richmond weather history for previous 24 hours

 ConditionsComfort  
Time TempWeatherWind HumidityBarometerVisibility
12:54 AM
Sat, Aug 1
73 °FClear.No wind74%29.93 "Hg10 mi
11:54 PM
Fri, Jul 31
73 °FClear.No wind71%29.93 "Hg10 mi
10:54 PM72 °FClear.No wind76%29.94 "Hg10 mi
9:54 PM76 °FClear.3 mph67%29.93 "Hg10 mi
8:54 PM77 °FSunny.3 mph64%29.92 "Hg10 mi
7:54 PM84 °FSunny.No wind46%29.90 "Hg10 mi
6:54 PM87 °FPassing clouds.9 mph36%29.88 "Hg10 mi
5:54 PM89 °FPassing clouds.9 mph35%29.88 "Hg10 mi
4:54 PM90 °FPassing clouds.5 mph34%29.89 "Hg10 mi
3:54 PM90 °FPassing clouds.6 mph38%29.90 "Hg10 mi
2:54 PM90 °FScattered clouds.7 mph38%29.93 "Hg10 mi
1:54 PM88 °FPassing clouds.3 mph39%29.95 "Hg10 mi
12:54 PM88 °FPassing clouds.3 mph40%29.96 "Hg10 mi
11:54 AM87 °FScattered clouds.13 mph43%29.97 "Hg10 mi
10:54 AM85 °FPassing clouds.9 mph48%29.97 "Hg10 mi
9:54 AM83 °FScattered clouds.9 mph51%29.97 "Hg10 mi
8:54 AM80 °FScattered clouds.9 mph56%29.97 "Hg10 mi
7:54 AM77 °FScattered clouds.13 mph60%29.96 "Hg10 mi
6:54 AM75 °FPassing clouds.10 mph69%29.94 "Hg10 mi
5:54 AM76 °FPassing clouds.12 mph72%29.93 "Hg10 mi
4:54 AM76 °FPassing clouds.6 mph85%29.92 "Hg10 mi
3:54 AM76 °FPassing clouds.3 mph85%29.91 "Hg10 mi
2:54 AM76 °FPassing clouds.No wind82%29.91 "Hg10 mi
Weather by CustomWeather, © 2015

See weather overviewHow to use our weather pages